Year,Month,Day,Hour,Minute,Value (Times are PST for temperature in C)
2012,07,10,08,38,16.20
2012,07,10,08,39,16.20
2012,07,10,08,40,16.20
2012,07,10,08,41,16.20
2012,07,10,08,42,16.20
2012,07,10,08,43,16.20
2012,07,10,08,44,16.30
2012,07,10,08,45,16.30
2012,07,10,08,46,16.30
2012,07,10,08,47,16.40
2012,07,10,08,48,16.40
2012,07,10,08,49,16.40
2012,07,10,08,50,16.50
2012,07,10,08,51,16.60
2012,07,10,08,52,16.60
2012,07,10,08,53,16.70
2012,07,10,08,54,16.80
2012,07,10,08,55,16.90
2012,07,10,08,56,17.00
2012,07,10,08,57,17.20
2012,07,10,08,58,17.30
2012,07,10,08,59,17.50
2012,07,10,09,00,17.50
2012,07,10,09,01,17.60
2012,07,10,09,02,17.70
2012,07,10,09,03,17.70
2012,07,10,09,04,17.70
2012,07,10,09,05,17.80
2012,07,10,09,06,17.90
2012,07,10,09,07,18.00
2012,07,10,09,08,18.10
2012,07,10,09,09,18.10
2012,07,10,09,10,18.10
2012,07,10,09,11,18.10
2012,07,10,09,12,18.00
2012,07,10,09,13,18.00
2012,07,10,09,14,17.90
2012,07,10,09,15,17.80
2012,07,10,09,16,17.80
2012,07,10,09,17,17.80
2012,07,10,09,18,17.80
2012,07,10,09,19,17.80
2012,07,10,09,20,17.80
2012,07,10,09,21,17.80
2012,07,10,09,22,17.80
2012,07,10,09,23,17.90
2012,07,10,09,24,17.90
2012,07,10,09,25,18.00
2012,07,10,09,26,18.10
2012,07,10,09,27,18.10
2012,07,10,09,28,18.10
2012,07,10,09,29,18.10
2012,07,10,09,30,18.10
2012,07,10,09,31,18.10
2012,07,10,09,32,18.10
2012,07,10,09,33,18.10
2012,07,10,09,34,18.20
2012,07,10,09,35,18.20
2012,07,10,09,36,18.30
2012,07,10,09,37,18.30
2012,07,10,09,38,18.40
2012,07,10,09,39,18.50
2012,07,10,09,40,18.50
2012,07,10,09,41,18.50
2012,07,10,09,42,18.50
2012,07,10,09,43,18.40
2012,07,10,09,44,18.40
2012,07,10,09,45,18.40
2012,07,10,09,46,18.40
2012,07,10,09,47,18.40
2012,07,10,09,48,18.40
2012,07,10,09,49,18.40
2012,07,10,09,50,18.40
2012,07,10,09,51,18.50
2012,07,10,09,52,18.60
2012,07,10,09,53,18.70
2012,07,10,09,54,18.70
2012,07,10,09,55,18.80
2012,07,10,09,56,18.80
2012,07,10,09,57,18.90
2012,07,10,09,58,18.90
2012,07,10,09,59,19.00
2012,07,10,10,00,19.00
2012,07,10,10,01,19.10
2012,07,10,10,02,19.20
2012,07,10,10,03,19.20
2012,07,10,10,04,19.30
2012,07,10,10,05,19.30
2012,07,10,10,06,19.30
2012,07,10,10,07,19.30
2012,07,10,10,08,19.30
2012,07,10,10,09,19.20
2012,07,10,10,10,19.20
2012,07,10,10,11,19.20
2012,07,10,10,12,19.10
2012,07,10,10,13,19.10
2012,07,10,10,14,19.20
2012,07,10,10,15,19.30
2012,07,10,10,16,19.40
2012,07,10,10,17,19.50
2012,07,10,10,18,19.50
2012,07,10,10,19,19.60
2012,07,10,10,20,19.60
2012,07,10,10,21,19.60
2012,07,10,10,22,19.60
2012,07,10,10,23,19.60
2012,07,10,10,24,19.70
2012,07,10,10,25,19.70
2012,07,10,10,26,19.70
2012,07,10,10,27,19.80
2012,07,10,10,28,19.70
2012,07,10,10,29,19.80
2012,07,10,10,30,19.80
2012,07,10,10,31,19.90
2012,07,10,10,32,20.00
2012,07,10,10,33,20.10
2012,07,10,10,34,20.20
2012,07,10,10,35,20.30
2012,07,10,10,36,20.30
2012,07,10,10,37,20.30
2012,07,10,10,38,20.30
2012,07,10,10,39,20.30
2012,07,10,10,40,20.10
2012,07,10,10,41,20.00
2012,07,10,10,42,20.00
2012,07,10,10,43,20.00
2012,07,10,10,44,20.10
2012,07,10,10,45,20.20
2012,07,10,10,46,20.20
2012,07,10,10,47,20.20
2012,07,10,10,48,20.20
2012,07,10,10,49,20.20
2012,07,10,10,50,20.20
2012,07,10,10,51,20.20
2012,07,10,10,52,20.30
2012,07,10,10,53,20.30
2012,07,10,10,54,20.20
2012,07,10,10,55,20.30
2012,07,10,10,56,20.40
2012,07,10,10,57,20.40
2012,07,10,10,58,20.40
2012,07,10,10,59,20.50
2012,07,10,11,00,20.60
2012,07,10,11,01,20.60
2012,07,10,11,02,20.60
2012,07,10,11,03,20.70
2012,07,10,11,04,20.80
2012,07,10,11,05,20.80
2012,07,10,11,06,20.90
2012,07,10,11,07,20.90
2012,07,10,11,08,21.00
2012,07,10,11,09,21.10
2012,07,10,11,10,21.10
2012,07,10,11,11,21.20
2012,07,10,11,12,21.10
2012,07,10,11,13,21.20
2012,07,10,11,14,21.20
2012,07,10,11,15,21.20
2012,07,10,11,16,21.30
2012,07,10,11,17,21.40
2012,07,10,11,18,21.60
2012,07,10,11,19,21.70
2012,07,10,11,20,21.80
2012,07,10,11,21,21.90
2012,07,10,11,22,22.00
2012,07,10,11,23,22.00
2012,07,10,11,24,22.10
2012,07,10,11,25,22.10
2012,07,10,11,26,22.10
2012,07,10,11,27,22.10
2012,07,10,11,28,22.20
2012,07,10,11,29,22.20
2012,07,10,11,30,22.20
2012,07,10,11,31,22.20
2012,07,10,11,32,22.30
2012,07,10,11,33,22.30
2012,07,10,11,34,22.30
2012,07,10,11,35,22.30
2012,07,10,11,36,22.30
2012,07,10,11,37,22.30
2012,07,10,11,38,22.30
2012,07,10,11,39,22.30
2012,07,10,11,40,22.30
2012,07,10,11,41,22.30
2012,07,10,11,42,22.40
2012,07,10,11,43,22.40
2012,07,10,11,44,22.50
2012,07,10,11,45,22.60
2012,07,10,11,46,22.50
2012,07,10,11,47,22.40
2012,07,10,11,48,22.30
2012,07,10,11,49,22.00
2012,07,10,11,50,21.90
2012,07,10,11,51,21.70
2012,07,10,11,52,21.60
2012,07,10,11,53,21.40
2012,07,10,11,54,21.30
2012,07,10,11,55,21.10
2012,07,10,11,56,21.10
2012,07,10,11,57,21.10
2012,07,10,11,58,21.00
2012,07,10,11,59,20.90
2012,07,10,12,00,20.80
2012,07,10,12,01,20.80
2012,07,10,12,02,20.70
2012,07,10,12,03,20.70
2012,07,10,12,04,20.70
2012,07,10,12,05,20.70
2012,07,10,12,06,20.60
2012,07,10,12,07,20.60
2012,07,10,12,08,20.60
2012,07,10,12,09,20.50
2012,07,10,12,10,20.50
2012,07,10,12,11,20.60
2012,07,10,12,12,20.70
2012,07,10,12,13,20.80
2012,07,10,12,14,20.90
2012,07,10,12,15,21.00
2012,07,10,12,16,21.00
2012,07,10,12,17,21.00
2012,07,10,12,18,21.10
2012,07,10,12,19,21.20
2012,07,10,12,20,21.20
2012,07,10,12,21,21.20
2012,07,10,12,22,21.10
2012,07,10,12,23,21.10
2012,07,10,12,24,21.10
2012,07,10,12,25,21.10
2012,07,10,12,26,21.10
2012,07,10,12,27,21.20
2012,07,10,12,28,21.30
2012,07,10,12,29,21.30
2012,07,10,12,30,21.40
2012,07,10,12,31,21.40
2012,07,10,12,32,21.50
2012,07,10,12,33,21.50
2012,07,10,12,34,21.40
2012,07,10,12,35,21.40
2012,07,10,12,36,21.50
2012,07,10,12,37,21.60
2012,07,10,12,38,21.70
2012,07,10,12,39,21.70
2012,07,10,12,40,21.60
2012,07,10,12,41,21.50
2012,07,10,12,42,21.40
2012,07,10,12,43,21.40
2012,07,10,12,44,21.50
2012,07,10,12,45,21.50
2012,07,10,12,46,21.60
2012,07,10,12,47,21.70
2012,07,10,12,48,21.70
2012,07,10,12,49,21.80
2012,07,10,12,50,21.80
2012,07,10,12,51,21.90
2012,07,10,12,52,22.00
2012,07,10,12,53,22.10
2012,07,10,12,54,22.10
2012,07,10,12,55,21.90
2012,07,10,12,56,21.80
2012,07,10,12,57,21.80
2012,07,10,12,58,21.80
2012,07,10,12,59,21.80
2012,07,10,13,00,21.90
2012,07,10,13,01,21.90
2012,07,10,13,02,21.90
2012,07,10,13,03,21.90
2012,07,10,13,04,22.00
2012,07,10,13,05,22.10
2012,07,10,13,06,22.10
2012,07,10,13,07,22.10
2012,07,10,13,08,22.10
2012,07,10,13,09,22.20
2012,07,10,13,10,22.20
2012,07,10,13,11,22.20
2012,07,10,13,12,22.20
2012,07,10,13,13,22.10
2012,07,10,13,14,22.10
2012,07,10,13,15,22.20
2012,07,10,13,16,22.20
2012,07,10,13,17,22.20
2012,07,10,13,18,22.30
2012,07,10,13,19,22.20
2012,07,10,13,20,22.20
2012,07,10,13,21,22.20
2012,07,10,13,22,22.30
2012,07,10,13,23,22.30
2012,07,10,13,24,22.30
2012,07,10,13,25,22.20
2012,07,10,13,26,22.30
2012,07,10,13,27,22.30
2012,07,10,13,28,22.30
2012,07,10,13,29,22.40
2012,07,10,13,30,22.40
2012,07,10,13,31,22.40
2012,07,10,13,32,22.50
2012,07,10,13,33,22.50
2012,07,10,13,34,22.50
2012,07,10,13,35,22.30
2012,07,10,13,36,22.30
2012,07,10,13,37,22.30
2012,07,10,13,38,22.20
2012,07,10,13,39,22.20
2012,07,10,13,40,22.20
2012,07,10,13,41,22.30
2012,07,10,13,42,22.30
2012,07,10,13,43,22.30
2012,07,10,13,44,22.40
2012,07,10,13,45,22.30
2012,07,10,13,46,22.30
2012,07,10,13,47,22.20
2012,07,10,13,48,22.30
2012,07,10,13,49,22.30
2012,07,10,13,50,22.50
2012,07,10,13,51,22.50
2012,07,10,13,52,22.50
2012,07,10,13,53,22.50
2012,07,10,13,54,22.40
2012,07,10,13,55,22.40
2012,07,10,13,56,22.40
2012,07,10,13,57,22.40
2012,07,10,13,58,22.50
2012,07,10,13,59,22.60
2012,07,10,14,00,22.60
2012,07,10,14,01,22.60
2012,07,10,14,02,22.50
2012,07,10,14,03,22.50
2012,07,10,14,04,22.50
2012,07,10,14,05,22.50
2012,07,10,14,06,22.50
2012,07,10,14,07,22.50
2012,07,10,14,08,22.50
2012,07,10,14,09,22.40
2012,07,10,14,10,22.40
2012,07,10,14,11,22.50
2012,07,10,14,12,22.60
2012,07,10,14,13,22.60
2012,07,10,14,14,22.70
2012,07,10,14,15,22.70
2012,07,10,14,16,22.80
2012,07,10,14,17,22.80
2012,07,10,14,18,22.90
2012,07,10,14,19,23.00
2012,07,10,14,20,23.20
2012,07,10,14,21,23.30
2012,07,10,14,22,23.40
2012,07,10,14,23,23.50
2012,07,10,14,24,23.60
2012,07,10,14,25,23.70
2012,07,10,14,26,23.70
2012,07,10,14,27,23.70
2012,07,10,14,28,23.80
2012,07,10,14,29,23.80
2012,07,10,14,30,23.90
2012,07,10,14,31,23.80
2012,07,10,14,32,23.80
2012,07,10,14,33,23.80
2012,07,10,14,34,23.80
2012,07,10,14,35,23.80
2012,07,10,14,36,23.80
2012,07,10,14,37,23.80
2012,07,10,14,38,23.80
2012,07,10,14,39,23.80
2012,07,10,14,40,23.80
2012,07,10,14,41,24.00
2012,07,10,14,42,24.10
2012,07,10,14,43,24.20
2012,07,10,14,44,24.20
2012,07,10,14,45,24.10
2012,07,10,14,46,24.10
2012,07,10,14,47,24.10
2012,07,10,14,48,24.10
2012,07,10,14,49,24.20
2012,07,10,14,50,24.30
2012,07,10,14,51,24.40
2012,07,10,14,52,24.50
2012,07,10,14,53,24.60
2012,07,10,14,54,24.70
2012,07,10,14,55,24.70
2012,07,10,14,56,24.70
2012,07,10,14,57,24.70
2012,07,10,14,58,24.60
2012,07,10,14,59,24.50
2012,07,10,15,00,24.40
2012,07,10,15,01,24.30
2012,07,10,15,02,24.30
2012,07,10,15,03,24.30
2012,07,10,15,04,24.40
2012,07,10,15,05,24.50
2012,07,10,15,06,24.60
2012,07,10,15,07,24.60
2012,07,10,15,08,24.70
2012,07,10,15,09,24.70
2012,07,10,15,10,24.70
2012,07,10,15,11,24.80
2012,07,10,15,12,24.80
2012,07,10,15,13,24.90
2012,07,10,15,14,24.90
2012,07,10,15,15,24.90
2012,07,10,15,16,24.90
2012,07,10,15,17,24.80
2012,07,10,15,18,24.80
2012,07,10,15,19,24.80
2012,07,10,15,20,24.80
2012,07,10,15,21,24.80
2012,07,10,15,22,24.70
2012,07,10,15,23,24.70
2012,07,10,15,24,24.70
2012,07,10,15,25,24.70
2012,07,10,15,26,24.70
2012,07,10,15,27,24.80
2012,07,10,15,28,24.80
2012,07,10,15,29,24.90
2012,07,10,15,30,24.80
2012,07,10,15,31,24.80
2012,07,10,15,32,24.80
2012,07,10,15,33,24.70
2012,07,10,15,34,24.70
2012,07,10,15,35,24.70
2012,07,10,15,36,24.70
2012,07,10,15,37,24.80
2012,07,10,15,38,24.80
2012,07,10,15,39,24.80
2012,07,10,15,40,24.90
2012,07,10,15,41,24.90
2012,07,10,15,42,24.90
2012,07,10,15,43,24.80
2012,07,10,15,44,24.80
2012,07,10,15,45,24.80
2012,07,10,15,46,24.90
2012,07,10,15,47,25.00
2012,07,10,15,48,25.10
2012,07,10,15,49,25.10
2012,07,10,15,50,24.90
2012,07,10,15,51,24.70
2012,07,10,15,52,24.70
2012,07,10,15,53,24.60
2012,07,10,15,54,24.60
2012,07,10,15,55,24.60
2012,07,10,15,56,24.70
2012,07,10,15,57,24.60
2012,07,10,15,58,24.50
2012,07,10,15,59,24.40
2012,07,10,16,00,24.40
2012,07,10,16,01,24.50
2012,07,10,16,02,24.60
2012,07,10,16,03,24.70
2012,07,10,16,04,24.80
2012,07,10,16,05,24.80
2012,07,10,16,06,24.90
2012,07,10,16,07,24.80
2012,07,10,16,08,24.60
2012,07,10,16,09,24.50
2012,07,10,16,10,24.50
2012,07,10,16,11,24.50
2012,07,10,16,12,24.50
2012,07,10,16,13,24.50
2012,07,10,16,14,24.60
2012,07,10,16,15,24.60
2012,07,10,16,16,24.70
2012,07,10,16,17,24.80
2012,07,10,16,18,24.90
2012,07,10,16,19,24.90
2012,07,10,16,20,24.90
2012,07,10,16,21,24.90
2012,07,10,16,22,24.80
2012,07,10,16,23,24.80
2012,07,10,16,24,24.90
2012,07,10,16,25,24.90
2012,07,10,16,26,25.00
2012,07,10,16,27,25.10
2012,07,10,16,28,25.30
2012,07,10,16,29,25.30
2012,07,10,16,30,25.40
2012,07,10,16,31,25.50
2012,07,10,16,32,25.60
2012,07,10,16,33,25.50
2012,07,10,16,34,25.40
2012,07,10,16,35,25.40
2012,07,10,16,36,25.40
2012,07,10,16,37,25.50
2012,07,10,16,38,25.50
2012,07,10,16,39,25.50
2012,07,10,16,40,25.60
2012,07,10,16,41,25.60
2012,07,10,16,42,25.60
2012,07,10,16,43,25.70
2012,07,10,16,44,25.80
2012,07,10,16,45,25.80
2012,07,10,16,46,25.70
2012,07,10,16,47,25.70
2012,07,10,16,48,25.70
2012,07,10,16,49,25.70
2012,07,10,16,50,25.70
2012,07,10,16,51,25.70
2012,07,10,16,52,25.70
2012,07,10,16,53,25.70
2012,07,10,16,54,25.70
2012,07,10,16,55,25.70
2012,07,10,16,56,25.70
2012,07,10,16,57,25.70
2012,07,10,16,58,25.80
2012,07,10,16,59,25.90
2012,07,10,17,00,25.90
2012,07,10,17,01,26.00
2012,07,10,17,02,26.10
2012,07,10,17,03,26.20
2012,07,10,17,04,26.20
2012,07,10,17,05,26.20
2012,07,10,17,06,26.30
2012,07,10,17,07,26.20
2012,07,10,17,08,26.00
2012,07,10,17,09,25.90
2012,07,10,17,10,25.90
2012,07,10,17,11,25.90
2012,07,10,17,12,25.90
2012,07,10,17,13,25.90
2012,07,10,17,14,25.90
2012,07,10,17,15,26.00
2012,07,10,17,16,25.90
2012,07,10,17,17,25.90
2012,07,10,17,18,25.80
2012,07,10,17,19,25.60
2012,07,10,17,20,25.50
2012,07,10,17,21,25.50
2012,07,10,17,22,25.60
2012,07,10,17,23,25.50
2012,07,10,17,24,25.50
2012,07,10,17,25,25.40
2012,07,10,17,26,25.40
2012,07,10,17,27,25.40
2012,07,10,17,28,25.40
2012,07,10,17,29,25.50
2012,07,10,17,30,25.60
2012,07,10,17,31,25.50
2012,07,10,17,32,25.40
2012,07,10,17,33,25.30
2012,07,10,17,34,25.20
2012,07,10,17,35,25.20
2012,07,10,17,36,25.20
2012,07,10,17,37,25.20
2012,07,10,17,38,25.20
2012,07,10,17,39,25.20
2012,07,10,17,40,25.10
2012,07,10,17,41,25.10
2012,07,10,17,42,25.00
2012,07,10,17,43,24.90
2012,07,10,17,44,25.00
2012,07,10,17,45,25.00
2012,07,10,17,46,25.10
2012,07,10,17,47,25.10
2012,07,10,17,48,25.10
2012,07,10,17,49,25.10
2012,07,10,17,50,25.20
2012,07,10,17,51,25.30
2012,07,10,17,52,25.40
2012,07,10,17,53,25.40
2012,07,10,17,54,25.30
2012,07,10,17,55,25.30
2012,07,10,17,56,25.30
2012,07,10,17,57,25.30
2012,07,10,17,58,25.40
2012,07,10,17,59,25.40
2012,07,10,18,00,25.40
2012,07,10,18,01,25.40
2012,07,10,18,02,25.40
2012,07,10,18,03,25.50
2012,07,10,18,04,25.50
2012,07,10,18,05,25.60
2012,07,10,18,06,25.60
2012,07,10,18,07,25.60
2012,07,10,18,08,25.60
2012,07,10,18,09,25.60
2012,07,10,18,10,25.50
2012,07,10,18,11,25.50
2012,07,10,18,12,25.50
2012,07,10,18,13,25.40
2012,07,10,18,14,25.40
2012,07,10,18,15,25.40
2012,07,10,18,16,25.30
2012,07,10,18,17,25.30
2012,07,10,18,18,25.30
2012,07,10,18,19,25.30
2012,07,10,18,20,25.20
2012,07,10,18,21,25.30
2012,07,10,18,22,25.30
2012,07,10,18,23,25.30
2012,07,10,18,24,25.20
2012,07,10,18,25,25.20
2012,07,10,18,26,25.20
2012,07,10,18,27,25.20
2012,07,10,18,28,25.20
2012,07,10,18,29,25.20
2012,07,10,18,30,25.10
2012,07,10,18,31,25.10
2012,07,10,18,32,25.10
2012,07,10,18,33,25.20
2012,07,10,18,34,25.10
2012,07,10,18,35,25.10
2012,07,10,18,36,25.00
2012,07,10,18,37,25.00
2012,07,10,18,38,24.90
2012,07,10,18,39,24.80
2012,07,10,18,40,24.70
2012,07,10,18,41,24.60
2012,07,10,18,42,24.60
2012,07,10,18,43,24.60
2012,07,10,18,44,24.60
2012,07,10,18,45,24.60
2012,07,10,18,46,24.60
2012,07,10,18,47,24.70
2012,07,10,18,48,24.70
2012,07,10,18,49,24.70
2012,07,10,18,50,24.60
2012,07,10,18,51,24.40
2012,07,10,18,52,24.30
2012,07,10,18,53,24.30
2012,07,10,18,54,24.30
2012,07,10,18,55,24.30
2012,07,10,18,56,24.30
2012,07,10,18,57,24.30
2012,07,10,18,58,24.30
2012,07,10,18,59,24.30
2012,07,10,19,00,24.30
2012,07,10,19,01,24.30
2012,07,10,19,02,24.30
